Location: Medlow Airstrip Trail, Medlow Bath NSW 2780, Australia
(33.6682°S, 150.3233°E)
Time: 02:05:15
(UTC+11:00)

Explorer 11/Cluster Stage 4 - Pass Details

Date: 23 September 2019
Orbit: 467 x 1259 km, 28.8° (Epoch: 15 October)

Event Time Altitude Azimuth Distance (km) Brightness Sun altitude
Rises 12:58:09 0° 270° (W) 3,567 10.2 52.8°
Reaches altitude 10° 13:00:42 10° 276° (W) 2,738 9.8 52.5°
Maximum altitude 13:07:08 44° 346° (NNW) 1,501 10.1 51.9°
Drops below altitude 10° 13:14:35 10° 54° (NE) 3,169 9.8 51.0°
Sets 13:17:45 0° 60° (ENE) 4,178 10.3 50.6°
